Simultaneous Nadir Overpasses (SNOs) Predictions

Prediction of SNOs between AQUA and GOES-15 Satellite Orbit:

Table of predicted SNOs for the next 14.0 days since TLE Epoch: 3/4/2017
Index Date Time (AQUA) AQUA Lat,Lon GOES-15 Lat,Lon Distance(km) Time Diff (sec)
1 03/05/2017 10:19:51 -0.83,-131.16 -0.01,-135.03 439.93 80
2 03/05/2017 22:41:16 -0.26,-136.36 0.00,-135.02 150.95 80
3 03/07/2017 22:29:05 0.31,-133.39 0.00,-134.96 177.54 80
4 03/08/2017 10:50:21 0.76,-138.55 0.00,-134.92 412.16 80
5 03/10/2017 10:38:10 0.18,-135.59 0.00,-134.85 84.07 80
6 03/12/2017 10:26:00 -0.46,-132.64 0.00,-134.78 243.88 80
7 03/12/2017 22:47:25 -0.62,-137.83 -0.00,-134.78 346.98 80
8 03/14/2017 22:35:14 -0.04,-134.87 -0.00,-134.70 19.45 80
9 03/16/2017 22:23:03 0.55,-131.91 0.00,-134.62 307.59 80
10 03/17/2017 10:44:19 0.53,-137.07 0.00,-134.58 282.80 80




NCC Satellite Simultaneous Nadir Overpasses (SNOs) Prediction Service
